GW1091 Weather Reports


Display with metric or nautical units.
time (UTC)temp
F
wind
direction
speed
MPH
gust
MPH
rain 1hr
in
rain 24hr
in
rain mn
in
humidity
%
barometer
mb
20260508225143 49 135 0.0 0.0 0.00 0.00 0.00 63 1013.8
20260508224633 49 135 0.0 0.0 0.00 0.00 0.00 63 1013.9
20260508223613 51 113 0.0 0.0 0.00 0.00 0.00 58 1013.5
20260508223104 51 90 0.0 0.0 0.00 0.00 0.00 57 1013.4
20260508222553 51 90 0.0 0.0 0.00 0.00 0.00 55 1013.0
20260508221537 52 90 0.0 0.0 0.00 0.00 0.00 55 1012.8
20260508221023 52 90 0.0 0.0 0.00 0.00 0.00 55 1012.7
20260508220513 53 68 0.0 0.0 0.00 0.00 0.00 54 1012.4
20260508215452 54 68 0.0 0.0 0.00 0.00 0.00 52 1012.2
20260508214433 55 68 0.0 0.0 0.00 0.00 0.00 50 1012.2
20260508213923 56 68 0.0 0.0 0.00 0.00 0.00 49 1012.1
20260508213411 56 68 0.0 0.0 0.00 0.00 0.00 47 1012.5
20260508212902 57 68 0.0 0.0 0.00 0.00 0.00 46 1012.2
20260508212352 58 68 0.0 0.0 0.00 0.00 0.00 43 1012.3
20260508211331 60 0 0.0 0.0 0.00 0.00 0.00 43 1012.1
20260508210821 61 45 0.0 0.0 0.00 0.00 0.00 42 1011.7
20260508210313 61 23 0.0 0.0 0.00 0.00 0.00 40 1011.8
20260508205251 62 68 0.0 0.0 0.00 0.00 0.00 39 1012.2
20260508204741 62 68 0.0 0.0 0.00 0.00 0.00 39 1012.3
20260508204231 62 68 0.0 0.0 0.00 0.00 0.00 38 1012.3
20260508203210 63 68 0.0 0.0 0.00 0.00 0.00 37 1012.4
20260508202150 64 45 0.0 0.0 0.00 0.00 0.00 35 1012.4
20260508201131 64 0 0.0 0.0 0.00 0.00 0.00 36 1012.3
20260508200620 64 0 0.0 0.0 0.00 0.00 0.00 36 1012.5
20260508200110 64 0 0.0 0.0 0.00 0.00 0.00 36 1012.3
20260508195559 64 90 0.0 0.0 0.00 0.00 0.00 36 1012.2
20260508195050 64 45 0.0 0.0 0.00 0.00 0.00 36 1012.2
20260508194543 64 45 0.0 0.0 0.00 0.00 0.00 36 1012.3
20260508194030 64 68 0.0 0.0 0.00 0.00 0.00 36 1012.1
20260508193519 64 68 0.0 0.0 0.00 0.00 0.00 36 1012.2
20260508192458 65 90 0.0 0.0 0.00 0.00 0.00 36 1012.2
20260508191948 65 158 0.0 0.0 0.00 0.00 0.00 35 1012.3
20260508191438 65 113 0.0 0.0 0.00 0.00 0.00 35 1012.2
20260508190928 67 293 0.0 0.0 0.00 0.00 0.00 34 1012.4
20260508190419 65 113 0.0 0.0 0.00 0.00 0.00 35 1012.5
20260508185359 65 90 0.0 0.0 0.00 0.00 0.00 36 1012.4
20260508184338 65 45 0.0 0.0 0.00 0.00 0.00 35 1012.6
20260508182808 64 68 0.0 4.0 0.00 0.00 0.00 36 1012.7
20260508182257 64 23 0.0 4.0 0.00 0.00 0.00 36 1012.6
20260508181747 65 45 1.0 4.0 0.00 0.00 0.00 36 1012.6
20260508181237 64 203 0.0 0.0 0.00 0.00 0.00 36 1012.8
20260508180728 65 180 0.0 0.0 0.00 0.00 0.00 35 1012.8
20260508180217 64 270 0.0 0.0 0.00 0.00 0.00 37 1013.0
20260508174647 65 68 0.0 0.0 0.00 0.00 0.00 35 1013.4
20260508174137 64 203 0.0 0.0 0.00 0.00 0.00 35 1013.5
20260508173627 64 113 0.0 0.0 0.00 0.00 0.00 35 1013.6
20260508173117 64 180 0.0 0.0 0.00 0.00 0.00 35 1013.7
20260508172056 64 158 0.0 0.0 0.00 0.00 0.00 36 1014.0
20260508171545 63 203 0.0 0.0 0.00 0.00 0.00 35 1013.9
20260508171036 64 113 0.0 0.0 0.00 0.00 0.00 36 1013.9
20260508170526 64 225 0.0 0.0 0.00 0.00 0.00 36 1014.1
20260508170015 64 180 0.0 0.0 0.00 0.00 0.00 36 1014.2
20260508165507 64 293 0.0 0.0 0.00 0.00 0.00 34 1014.2
20260508164955 63 113 0.0 0.0 0.00 0.00 0.00 36 1014.6
20260508163936 64 90 0.0 4.0 0.00 0.00 0.00 36 1014.8
20260508163425 63 135 0.0 0.0 0.00 0.00 0.00 36 1014.9
20260508162915 63 270 0.0 2.0 0.00 0.00 0.00 36 1015.1
20260508162406 62 225 0.0 2.0 0.00 0.00 0.00 36 1015.2
20260508161855 62 203 0.0 2.0 0.00 0.00 0.00 35 1015.4
20260508161345 64 90 0.0 2.0 0.00 0.00 0.00 35 1015.2
20260508160324 62 135 0.0 2.0 0.00 0.00 0.00 34 1015.6
20260508155815 61 113 0.0 2.0 0.00 0.00 0.00 34 1015.7
20260508155306 61 158 0.0 2.0 0.00 0.00 0.00 34 1016.0
20260508154756 62 180 0.0 0.0 0.00 0.00 0.00 34 1015.7
20260508154244 62 248 0.0 0.0 0.00 0.00 0.00 34 1015.7
20260508153734 61 225 0.0 0.0 0.00 0.00 0.00 34 1015.9
20260508153223 61 248 0.0 0.0 0.00 0.00 0.00 33 1015.7
20260508152713 61 113 0.0 2.0 0.00 0.00 0.00 32 1016.1
20260508152203 62 225 0.0 2.0 0.00 0.00 0.00 31 1016.1
20260508151653 62 248 0.0 0.0 0.00 0.00 0.00 32 1016.1
20260508151144 61 225 0.0 2.0 0.00 0.00 0.00 32 1016.0
20260508150633 60 203 0.0 2.0 0.00 0.00 0.00 31 1016.1
20260508150125 61 203 0.0 2.0 0.00 0.00 0.00 31 1016.3
20260508145614 60 248 0.0 2.0 0.00 0.00 0.00 31 1016.0
20260508145105 60 248 0.0 0.0 0.00 0.00 0.00 31 1016.2
20260508144553 59 158 0.0 0.0 0.00 0.00 0.00 30 1016.3
20260508143533 59 180 0.0 2.0 0.00 0.00 0.00 31 1016.5
20260508143022 59 203 0.0 2.0 0.00 0.00 0.00 31 1016.4
20260508142513 58 248 0.0 0.0 0.00 0.00 0.00 30 1016.5
20260508141453 57 248 0.0 2.0 0.00 0.00 0.00 31 1016.6
20260508140432 57 203 0.0 0.0 0.00 0.00 0.00 31 1016.4
20260508135921 73 225 0.0 0.0 0.00 0.00 0.00 49 1016.5
20260508134901 57 203 0.0 2.0 0.00 0.00 0.00 33 1016.7
20260508134352 56 270 0.0 2.0 0.00 0.00 0.00 33 1016.6
20260508133841 56 248 0.0 0.0 0.00 0.00 0.00 34 1016.5
20260508133331 56 225 0.0 0.0 0.00 0.00 0.00 34 1016.5
20260508132822 55 248 0.0 2.0 0.00 0.00 0.00 35 1016.6
20260508132311 55 248 0.0 2.0 0.00 0.00 0.00 36 1016.7
20260508131803 54 225 0.0 2.0 0.00 0.00 0.00 37 1017.0
20260508131250 54 203 0.0 0.0 0.00 0.00 0.00 37 1016.4
20260508130741 53 270 0.0 0.0 0.00 0.00 0.00 37 1016.9
20260508130231 53 225 0.0 0.0 0.00 0.00 0.00 38 1016.7
20260508125210 52 248 0.0 2.0 0.00 0.00 0.00 39 1016.5
20260508124700 52 225 0.0 0.0 0.00 0.00 0.00 40 1016.9
20260508124150 52 203 0.0 0.0 0.00 0.00 0.00 40 1016.7
20260508123640 51 158 0.0 0.0 0.00 0.00 0.00 42 1016.7
20260508122623 50 248 0.0 2.0 0.00 0.00 0.00 43 1017.0
20260508122109 50 225 0.0 2.0 0.00 0.00 0.00 44 1016.7
20260508120539 49 203 0.0 0.0 0.00 0.00 0.00 47 1016.6
20260508120029 49 203 0.0 0.0 0.00 0.00 0.00 47 1016.6
20260508115519 48 225 0.0 0.0 0.00 0.00 0.00 48 1016.6
20260508115009 48 203 0.0 0.0 0.00 0.00 0.00 48 1016.5
20260508114459 48 248 0.0 0.0 0.00 0.00 0.00 48 1016.7
20260508113950 47 203 0.0 0.0 0.00 0.00 0.00 50 1016.6
20260508113439 46 225 0.0 0.0 0.00 0.00 0.00 51 1016.5
20260508112929 46 225 0.0 2.0 0.00 0.00 0.00 51 1016.3
20260508112418 46 158 0.0 2.0 0.00 0.00 0.00 50 1016.7
20260508111908 46 203 0.0 2.0 0.00 0.00 0.00 51 1016.5
20260508111357 46 180 0.0 0.0 0.00 0.00 0.00 51 1016.5
20260508110849 46 158 0.0 2.0 0.00 0.00 0.00 51 1016.4
20260508110339 46 180 0.0 2.0 0.00 0.00 0.00 51 1016.4
20260508105828 46 135 0.0 0.0 0.00 0.00 0.00 50 1016.1
20260508105317 46 135 0.0 2.0 0.00 0.00 0.00 50 1016.4
20260508104808 46 113 0.0 2.0 0.00 0.00 0.00 50 1016.2
20260508104258 45 135 0.0 0.0 0.00 0.00 0.00 51 1016.4
20260508103747 45 135 0.0 0.0 0.00 0.00 0.00 51 1016.2
20260508103238 45 135 0.0 0.0 0.00 0.00 0.00 51 1016.2
20260508102726 45 158 0.0 0.0 0.00 0.00 0.00 50 1016.2
20260508102217 45 158 0.0 0.0 0.00 0.00 0.00 50 1016.2
20260508101708 46 135 0.0 0.0 0.00 0.00 0.00 49 1016.0
20260508101158 46 113 0.0 0.0 0.00 0.00 0.00 49 1016.1
20260508100646 46 180 0.0 0.0 0.00 0.00 0.00 48 1015.7
20260508100138 46 180 0.0 0.0 0.00 0.00 0.00 48 1016.1
20260508095117 47 180 0.0 0.0 0.00 0.00 0.00 47 1016.1
20260508094602 47 180 0.0 0.0 0.00 0.00 0.00 45 1015.9
20260508094056 47 180 0.0 0.0 0.00 0.00 0.00 45 1015.8
20260508092526 48 180 0.0 2.0 0.00 0.00 0.00 44 1015.4
20260508092016 48 135 0.0 2.0 0.00 0.00 0.00 44 1015.4
20260508090955 48 158 0.0 0.0 0.00 0.00 0.00 43 1015.7
20260508090446 48 203 0.0 0.0 0.00 0.00 0.00 43 1015.7
20260508085935 49 203 0.0 0.0 0.00 0.00 0.00 42 1015.5
20260508085426 49 180 0.0 2.0 0.00 0.00 0.00 42 1015.4
20260508084915 49 180 0.0 2.0 0.00 0.00 0.00 41 1015.6
20260508084404 48 203 0.0 0.0 0.00 0.00 0.00 43 1015.7
20260508083854 47 203 0.0 0.0 0.00 0.00 0.00 44 1015.5
20260508082325 47 135 0.0 0.0 0.00 0.00 0.00 44 1015.3
20260508081814 47 158 0.0 0.0 0.00 0.00 0.00 43 1015.4
20260508081304 47 158 0.0 0.0 0.00 0.00 0.00 43 1015.3
20260508080754 48 158 0.0 0.0 0.00 0.00 0.00 42 1015.3
20260508075740 48 180 0.0 0.0 0.00 0.00 0.00 41 1015.7
20260508075223 48 158 0.0 0.0 0.00 0.00 0.00 42 1015.5
20260508074713 48 113 0.0 0.0 0.00 0.00 0.00 41 1015.5
20260508073654 49 203 0.0 0.0 0.00 0.00 0.00 40 1015.6
20260508073143 48 203 0.0 0.0 0.00 0.00 0.00 41 1015.2
20260508072634 48 135 0.0 0.0 0.00 0.00 0.00 42 1015.3
20260508072123 48 203 0.0 0.0 0.00 0.00 0.00 42 1015.4
20260508071613 48 158 0.0 0.0 0.00 0.00 0.00 42 1015.2
20260508071103 47 203 0.0 2.0 0.00 0.00 0.00 43 1014.9
20260508070553 48 135 0.0 2.0 0.00 0.00 0.00 42 1015.1
20260508070043 48 68 0.0 0.0 0.00 0.00 0.00 41 1015.1
20260508065532 49 203 0.0 0.0 0.00 0.00 0.00 40 1015.2
20260508064513 49 203 0.0 2.0 0.00 0.00 0.00 41 1015.0
20260508064002 49 225 0.0 2.0 0.00 0.00 0.00 41 1015.2
20260508063452 49 180 0.0 2.0 0.00 0.00 0.00 41 1015.2
20260508062941 49 203 0.0 0.0 0.00 0.00 0.00 41 1015.2
20260508061922 49 135 0.0 2.0 0.00 0.00 0.00 41 1014.8
20260508061411 49 203 0.0 0.0 0.00 0.00 0.00 41 1014.7
20260508060902 49 180 0.0 2.0 0.00 0.00 0.00 40 1014.8
20260508060351 49 180 0.0 2.0 0.00 0.00 0.00 40 1015.0
20260508055842 49 203 0.0 2.0 0.00 0.00 0.00 41 1014.8
20260508055331 50 180 0.0 2.0 0.00 0.00 0.00 39 1015.0
20260508054821 50 203 0.0 2.0 0.00 0.00 0.00 39 1015.1
20260508054311 50 180 0.0 0.0 0.00 0.00 0.00 38 1015.0
20260508053800 51 158 0.0 0.0 0.00 0.00 0.00 38 1014.8
20260508052740 50 180 0.0 0.0 0.00 0.00 0.00 41 1015.1
20260508052231 49 180 0.0 2.0 0.00 0.00 0.00 42 1015.2
20260508051721 49 158 0.0 2.0 0.00 0.00 0.00 41 1014.9
20260508051210 50 225 0.0 2.0 0.00 0.00 0.00 40 1014.9
20260508050701 50 203 0.0 0.0 0.00 0.00 0.00 40 1015.1
20260508050150 50 203 0.0 0.0 0.00 0.00 0.00 40 1015.1
20260508045639 50 135 0.0 0.0 0.00 0.00 0.00 40 1014.9
20260508045130 50 180 0.0 0.0 0.00 0.00 0.00 40 1014.9
20260508044620 50 225 0.0 0.0 0.00 0.00 0.00 40 1014.7
20260508044110 49 180 0.0 0.0 0.00 0.00 0.00 41 1014.7
20260508043600 49 158 0.0 0.0 0.00 0.00 0.00 41 1014.5
20260508043059 49 135 0.0 0.0 0.00 0.00 0.00 41 1015.0
20260508042540 49 158 0.0 0.0 0.00 0.00 0.00 42 1014.9
20260508041529 49 180 0.0 2.0 0.00 0.00 0.00 42 1014.6
20260508041011 49 225 0.0 2.0 0.00 0.00 0.00 41 1014.5
20260508040459 49 225 0.0 2.0 0.00 0.00 0.00 40 1014.2
20260508035948 50 203 0.0 2.0 0.00 0.00 0.00 40 1014.7
20260508034929 49 180 0.0 2.0 0.00 0.00 0.00 41 1014.2
20260508034420 49 225 0.0 2.0 0.00 0.00 0.00 42 1014.0
20260508033908 49 203 0.0 0.0 0.00 0.00 0.00 42 1013.9
20260508032848 48 225 0.0 0.0 0.00 0.00 0.00 45 1014.0
20260508032338 46 225 0.0 0.0 0.00 0.00 0.00 50 1014.0
20260508031830 46 248 0.0 0.0 0.00 0.00 0.00 50 1014.2
20260508031318 45 225 0.0 0.0 0.00 0.00 0.00 51 1014.4
20260508030810 45 225 0.0 0.0 0.00 0.00 0.00 52 1014.2
20260508030301 44 248 0.0 0.0 0.00 0.00 0.00 54 1013.9
20260508025237 43 248 0.0 0.0 0.00 0.00 0.00 59 1013.8
20260508024727 42 225 0.0 0.0 0.00 0.00 0.00 61 1014.0
20260508024218 42 270 0.0 0.0 0.00 0.00 0.00 61 1013.9
20260508023707 43 248 0.0 0.0 0.00 0.00 0.00 59 1014.2
20260508023157 43 248 0.0 0.0 0.00 0.00 0.00 58 1014.1
20260508022648 44 248 0.0 0.0 0.00 0.00 0.00 56 1014.1
20260508022136 46 248 0.0 0.0 0.00 0.00 0.00 51 1014.0
20260508021626 47 293 0.0 0.0 0.00 0.00 0.00 48 1014.0
20260508021117 46 270 0.0 0.0 0.00 0.00 0.00 51 1013.8
20260508015546 42 315 0.0 0.0 0.00 0.00 0.00 65 1013.5
20260508014526 43 225 0.0 0.0 0.00 0.00 0.00 60 1013.7
20260508013506 44 225 0.0 0.0 0.00 0.00 0.00 57 1013.2
20260508012956 45 225 0.0 0.0 0.00 0.00 0.00 54 1013.2
20260508012445 44 225 0.0 0.0 0.00 0.00 0.00 57 1013.0
20260508011935 44 248 0.0 0.0 0.00 0.00 0.00 57 1013.2
20260508011425 42 248 0.0 0.0 0.00 0.00 0.00 63 1013.0
20260508010915 40 248 0.0 0.0 0.00 0.00 0.00 66 1013.2
20260508010405 41 248 0.0 0.0 0.00 0.00 0.00 65 1013.1
20260508005855 40 270 0.0 0.0 0.00 0.00 0.00 65 1013.1
20260508005347 40 225 0.0 0.0 0.00 0.00 0.00 66 1013.1
20260508004326 40 225 0.0 0.0 0.00 0.00 0.00 64 1013.0
20260508003815 40 225 0.0 0.0 0.00 0.00 0.00 64 1013.1
20260508003304 39 248 0.0 0.0 0.00 0.00 0.00 64 1012.9
20260508002754 40 248 0.0 0.0 0.00 0.00 0.00 63 1013.1
20260508001734 41 293 0.0 0.0 0.00 0.00 0.00 63 1012.7
20260508001224 40 248 0.0 0.0 0.00 0.00 0.00 61 1012.9
20260508000714 40 270 0.0 0.0 0.00 0.00 0.00 61 1013.0
20260508000205 40 270 0.0 0.0 0.00 0.00 0.00 61 1012.6
20260507235653 40 248 0.0 0.0 0.00 0.00 0.00 60 1012.5
20260507235143 42 248 0.0 0.0 0.00 0.00 0.00 56 1012.6
20260507234634 41 248 0.0 0.0 0.00 0.00 0.00 55 1012.6
20260507234123 43 248 0.0 0.0 0.00 0.00 0.00 56 1012.7
20260507233613 43 248 0.0 0.0 0.00 0.00 0.00 54 1012.4
20260507233103 42 248 0.0 0.0 0.00 0.00 0.00 53 1012.5
20260507232553 44 270 0.0 0.0 0.00 0.00 0.00 53 1012.6
20260507232042 47 225 0.0 0.0 0.00 0.00 0.00 46 1012.5
20260507231532 48 225 0.0 0.0 0.00 0.00 0.00 44 1012.5
20260507230512 46 248 0.0 0.0 0.00 0.00 0.00 47 1012.4
20260507230002 46 248 0.0 0.0 0.00 0.00 0.00 43 1012.4